When you browse on this site, cookies collect data to enhance your experience and personalize the content and advertising you see.
Visit our Privacy Policy to learn more. By continuing to use the site, you agree to this use of cookies and data.
  • In Romania
  • List of Countries
  • For 7 days
  • Water Temperature
  • Weather Map
  • Weather Widgets
  • user-avatar
    Login

    Hourly Weather Passo Fundo

    Today, 29 January, Wednesday

    Time Temperature Precipitation Wind Pressure Humidity
    00:00 +19°C° 0 mm 3 mps 703 mmHg 89%
    01:00 +19°C° 0.1 mm 3 mps 703 mmHg 90%
    02:00 +19°C° 0.1 mm 3 mps 702 mmHg 91%
    03:00 +19°C° 0.1 mm 3 mps 702 mmHg 93%
    04:00 +19°C° 0.8 mm 3 mps 703 mmHg 93%
    05:00 +19°C° 0.8 mm 2 mps 703 mmHg 94%
    06:00 +19°C° 0.8 mm 2 mps 703 mmHg 95%
    07:00 +19°C° 1 mm 2 mps 704 mmHg 96%
    08:00 +19°C° 1 mm 2 mps 704 mmHg 96%
    09:00 +20°C° 1 mm 2 mps 705 mmHg 96%
    10:00 +21°C° 0.5 mm 2 mps 705 mmHg 94%
    11:00 +23°C° 0.5 mm 2 mps 705 mmHg 91%
    12:00 +24°C° 0.5 mm 2 mps 705 mmHg 89%
    13:00 +24°C° 1.1 mm 2 mps 705 mmHg 86%
    14:00 +25°C° 1.1 mm 2 mps 704 mmHg 84%
    15:00 +26°C° 1.1 mm 2 mps 704 mmHg 81%
    16:00 +26°C° 0 mm 2 mps 704 mmHg 80%
    17:00 +26°C° 0 mm 1 mps 704 mmHg 79%
    18:00 +26°C° 0 mm 1 mps 703 mmHg 78%
    19:00 +25°C° 0.3 mm 2 mps 703 mmHg 83%
    20:00 +23°C° 0.3 mm 2 mps 704 mmHg 88%
    21:00 +21°C° 0.3 mm 2 mps 704 mmHg 93%
    22:00 +21°C° 0.1 mm 2 mps 704 mmHg 94%
    23:00 +20°C° 0.1 mm 2 mps 704 mmHg 94%

    Tomorrow, 30 January, Thursday

    Time Temperature Precipitation Wind Pressure Humidity
    00:00 +20°C° 0.1 mm 2 mps 704 mmHg 94%
    01:00 +20°C° 0 mm 2 mps 704 mmHg 94%
    02:00 +20°C° 0 mm 2 mps 703 mmHg 94%
    03:00 +20°C° 0 mm 2 mps 703 mmHg 94%
    04:00 +19°C° 0 mm 2 mps 703 mmHg 94%
    05:00 +19°C° 0 mm 2 mps 703 mmHg 95%
    06:00 +19°C° 0 mm 2 mps 703 mmHg 95%
    07:00 +20°C° 0.2 mm 2 mps 704 mmHg 93%
    08:00 +23°C° 0.2 mm 2 mps 704 mmHg 91%
    09:00 +24°C° 0.2 mm 2 mps 705 mmHg 90%
    10:00 +23°C° 1 mm 2 mps 705 mmHg 92%
    11:00 +23°C° 1 mm 2 mps 705 mmHg 94%
    12:00 +21°C° 1 mm 2 mps 705 mmHg 96%
    13:00 +21°C° 0.9 mm 2 mps 704 mmHg 96%
    14:00 +21°C° 0.9 mm 2 mps 704 mmHg 96%
    15:00 +21°C° 0.9 mm 2 mps 703 mmHg 97%
    16:00 +21°C° 1.1 mm 3 mps 703 mmHg 97%
    17:00 +20°C° 1.1 mm 4 mps 702 mmHg 96%
    18:00 +20°C° 1.1 mm 5 mps 702 mmHg 96%
    19:00 +20°C° 0 mm 4 mps 702 mmHg 96%
    20:00 +20°C° 0 mm 3 mps 702 mmHg 97%
    21:00 +20°C° 0 mm 3 mps 702 mmHg 97%
    22:00 +20°C° 0.1 mm 3 mps 703 mmHg 97%
    23:00 +20°C° 0.1 mm 3 mps 703 mmHg 97%

    Day after tomorrow, 31 January, Friday

    Time Temperature Precipitation Wind Pressure Humidity
    00:00 +20°C° 0.1 mm 3 mps 703 mmHg 97%
    01:00 +20°C° 0 mm 3 mps 703 mmHg 97%
    02:00 +20°C° 0 mm 3 mps 702 mmHg 97%
    03:00 +20°C° 0 mm 3 mps 702 mmHg 98%
    04:00 +20°C° 0 mm 3 mps 702 mmHg 98%
    05:00 +20°C° 0 mm 3 mps 702 mmHg 98%
    06:00 +20°C° 0 mm 3 mps 703 mmHg 98%
    07:00 +20°C° 0 mm 3 mps 703 mmHg 96%
    08:00 +21°C° 0 mm 3 mps 703 mmHg 95%
    09:00 +21°C° 0 mm 3 mps 703 mmHg 94%
    10:00 +24°C° 0.2 mm 3 mps 704 mmHg 89%
    11:00 +25°C° 0.2 mm 3 mps 704 mmHg 85%
    12:00 +26°C° 0.2 mm 3 mps 704 mmHg 80%
    13:00 +26°C° 0.4 mm 4 mps 704 mmHg 80%
    14:00 +27°C° 0.4 mm 4 mps 704 mmHg 80%
    15:00 +27°C° 0.4 mm 4 mps 703 mmHg 80%
    16:00 +26°C° 0.4 mm 3 mps 703 mmHg 81%
    17:00 +26°C° 0.4 mm 3 mps 703 mmHg 83%
    18:00 +25°C° 0.4 mm 2 mps 703 mmHg 85%
    19:00 +24°C° 0.1 mm 2 mps 703 mmHg 89%
    20:00 +21°C° 0.1 mm 3 mps 704 mmHg 93%
    21:00 +20°C° 0.1 mm 3 mps 704 mmHg 97%
    22:00 +19°C° 0 mm 3 mps 704 mmHg 97%
    23:00 +18°C° 0 mm 3 mps 704 mmHg 97%

    1 February, Saturday

    Time Temperature Precipitation Wind Pressure Humidity
    00:00 +18°C° 0 mm 2 mps 704 mmHg 97%
    01:00 +18°C° 0 mm 2 mps 704 mmHg 98%
    02:00 +17°C° 0 mm 2 mps 704 mmHg 98%
    03:00 +17°C° 0 mm 2 mps 703 mmHg 98%
    04:00 +17°C° 0 mm 2 mps 704 mmHg 97%
    05:00 +17°C° 0 mm 2 mps 704 mmHg 97%
    06:00 +17°C° 0 mm 2 mps 704 mmHg 96%
    07:00 +18°C° 0 mm 2 mps 704 mmHg 94%
    08:00 +20°C° 0 mm 2 mps 704 mmHg 91%
    09:00 +21°C° 0 mm 3 mps 705 mmHg 89%
    10:00 +24°C° 0 mm 2 mps 705 mmHg 82%
    11:00 +26°C° 0 mm 2 mps 704 mmHg 75%
    12:00 +28°C° 0 mm 1 mps 704 mmHg 68%
    13:00 +28°C° 0 mm 1 mps 704 mmHg 65%
    14:00 +29°C° 0 mm 2 mps 703 mmHg 62%
    15:00 +29°C° 0 mm 2 mps 703 mmHg 59%
    16:00 +29°C° 0 mm 2 mps 703 mmHg 63%
    17:00 +28°C° 0 mm 2 mps 702 mmHg 67%
    18:00 +27°C° 0 mm 2 mps 702 mmHg 72%
    19:00 +25°C° 0 mm 3 mps 702 mmHg 74%
    20:00 +22°C° 0 mm 3 mps 702 mmHg 77%
    21:00 +20°C° 0 mm 3 mps 702 mmHg 79%
    22:00 +20°C° 0 mm 3 mps 703 mmHg 85%
    23:00 +19°C° 0 mm 3 mps 703 mmHg 90%

    2 February, Sunday

    Time Temperature Precipitation Wind Pressure Humidity
    00:00 +19°C° 0 mm 3 mps 703 mmHg 96%
    01:00 +18°C° 0 mm 3 mps 703 mmHg 96%
    02:00 +18°C° 0 mm 3 mps 703 mmHg 96%
    03:00 +18°C° 0 mm 2 mps 703 mmHg 96%
    04:00 +18°C° 0 mm 2 mps 703 mmHg 96%
    05:00 +18°C° 0 mm 2 mps 703 mmHg 96%
    06:00 +18°C° 0 mm 2 mps 703 mmHg 97%
    07:00 +20°C° 0 mm 2 mps 703 mmHg 92%
    08:00 +23°C° 0 mm 2 mps 704 mmHg 87%
    09:00 +25°C° 0 mm 2 mps 705 mmHg 82%
    10:00 +27°C° 0 mm 2 mps 705 mmHg 75%
    11:00 +29°C° 0 mm 1 mps 705 mmHg 68%
    12:00 +29°C° 0 mm 0 mps 705 mmHg 62%
    13:00 +31°C° 0 mm 1 mps 704 mmHg 60%
    14:00 +31°C° 0 mm 1 mps 704 mmHg 58%
    15:00 +31°C° 0 mm 2 mps 703 mmHg 57%
    16:00 +31°C° 0 mm 2 mps 703 mmHg 61%
    17:00 +31°C° 0 mm 1 mps 703 mmHg 66%
    18:00 +30°C° 0 mm 1 mps 703 mmHg 70%
    19:00 +28°C° 0 mm 1 mps 703 mmHg 73%
    20:00 +26°C° 0 mm 1 mps 703 mmHg 75%
    21:00 +24°C° 0 mm 1 mps 703 mmHg 78%
    22:00 +23°C° 0 mm 2 mps 704 mmHg 83%
    23:00 +23°C° 0 mm 2 mps 704 mmHg 87%

    3 February, Monday

    Time Temperature Precipitation Wind Pressure Humidity
    00:00 +21°C° 0 mm 3 mps 704 mmHg 92%
    01:00 +21°C° 0 mm 3 mps 704 mmHg 92%
    02:00 +21°C° 0 mm 4 mps 704 mmHg 93%
    03:00 +21°C° 0 mm 4 mps 704 mmHg 93%
    04:00 +21°C° 0 mm 4 mps 704 mmHg 92%
    05:00 +21°C° 0 mm 5 mps 704 mmHg 90%
    06:00 +21°C° 0 mm 5 mps 704 mmHg 88%
    07:00 +22°C° 0 mm 5 mps 705 mmHg 84%
    08:00 +23°C° 0 mm 5 mps 705 mmHg 81%
    09:00 +25°C° 0 mm 5 mps 706 mmHg 77%
    10:00 +27°C° 0 mm 5 mps 706 mmHg 72%
    11:00 +29°C° 0 mm 4 mps 706 mmHg 68%
    12:00 +30°C° 0 mm 4 mps 705 mmHg 64%
    13:00 +31°C° 0 mm 3 mps 705 mmHg 61%
    14:00 +31°C° 0 mm 3 mps 704 mmHg 58%
    15:00 +32°C° 0 mm 2 mps 704 mmHg 55%
    16:00 +31°C° 0 mm 2 mps 704 mmHg 59%
    17:00 +31°C° 0 mm 2 mps 703 mmHg 64%
    18:00 +30°C° 0 mm 2 mps 703 mmHg 68%
    19:00 +29°C° 0 mm 2 mps 703 mmHg 69%
    20:00 +27°C° 0 mm 2 mps 704 mmHg 71%
    21:00 +25°C° 0 mm 3 mps 704 mmHg 72%
    22:00 +25°C° 0 mm 4 mps 704 mmHg 73%
    23:00 +23°C° 0 mm 5 mps 704 mmHg 75%
    Show more